| time (UTC) | temp F | wind direction | speed knots | gust knots | rain 1hr in | rain 24hr in | rain mn in | humidity % | barometer mb |
| 20260506205004 | 82 | 39 | 4.3 | 8.7 | 0.00 | 0.00 | 0.00 | 74 | 1009.0 |
| 20260506204504 | 82 | 34 | 4.3 | 8.7 | 0.00 | 0.00 | 0.00 | 75 | 1009.1 |
| 20260506204005 | 83 | 31 | 4.3 | 8.7 | 0.00 | 0.00 | 0.00 | 74 | 1009.0 |
| 20260506203504 | 83 | 33 | 3.5 | 12.2 | 0.00 | 0.00 | 0.00 | 75 | 1009.1 |
| 20260506203005 | 83 | 32 | 4.3 | 12.2 | 0.00 | 0.00 | 0.00 | 75 | 1009.2 |
| 20260506202505 | 83 | 29 | 4.3 | 9.6 | 0.00 | 0.00 | 0.00 | 74 | 1009.1 |
| 20260506202026 | 84 | 31 | 3.5 | 8.7 | 0.00 | 0.00 | 0.00 | 74 | 1009.1 |
| 20260506201504 | 84 | 46 | 3.5 | 8.7 | 0.00 | 0.00 | 0.00 | 74 | 1009.0 |
| 20260506201004 | 84 | 61 | 4.3 | 8.7 | 0.00 | 0.00 | 0.00 | 75 | 1009.0 |
| 20260506200526 | 84 | 71 | 4.3 | 8.7 | 0.00 | 0.00 | 0.00 | 75 | 1009.0 |
| 20260506200004 | 84 | 75 | 2.6 | 8.7 | 0.00 | 0.00 | 0.00 | 73 | 1009.0 |
| 20260506195504 | 84 | 67 | 2.6 | 7.0 | 0.00 | 0.00 | 0.00 | 74 | 1009.0 |
| 20260506195004 | 84 | 84 | 1.7 | 7.0 | 0.00 | 0.00 | 0.00 | 74 | 1009.1 |
| 20260506194526 | 84 | 86 | 2.6 | 7.8 | 0.00 | 0.00 | 0.00 | 75 | 1009.0 |
| 20260506194025 | 84 | 75 | 3.5 | 8.7 | 0.00 | 0.00 | 0.00 | 76 | 1009.0 |
| 20260506193506 | 84 | 61 | 2.6 | 8.7 | 0.00 | 0.00 | 0.00 | 76 | 1009.1 |
| 20260506193005 | 84 | 63 | 2.6 | 6.1 | 0.00 | 0.00 | 0.00 | 77 | 1009.1 |
| 20260506192504 | 83 | 73 | 3.5 | 7.8 | 0.00 | 0.00 | 0.00 | 76 | 1009.1 |
| 20260506192004 | 84 | 61 | 3.5 | 7.8 | 0.00 | 0.00 | 0.00 | 76 | 1009.1 |
| 20260506191504 | 84 | 56 | 3.5 | 7.8 | 0.00 | 0.00 | 0.00 | 74 | 1009.1 |
| 20260506191005 | 85 | 74 | 1.7 | 6.1 | 0.00 | 0.00 | 0.00 | 74 | 1009.3 |
| 20260506190526 | 85 | 74 | 1.7 | 5.2 | 0.00 | 0.00 | 0.00 | 72 | 1009.2 |
| 20260506190005 | 85 | 100 | 1.7 | 4.3 | 0.00 | 0.00 | 0.00 | 75 | 1009.3 |
| 20260506185504 | 84 | 153 | 2.6 | 5.2 | 0.00 | 0.00 | 0.00 | 73 | 1009.4 |
| 20260506185025 | 84 | 152 | 2.6 | 5.2 | 0.00 | 0.00 | 0.00 | 74 | 1009.4 |
| 20260506184505 | 84 | 92 | 1.7 | 6.1 | 0.00 | 0.00 | 0.00 | 74 | 1009.3 |
| 20260506184004 | 84 | 93 | 1.7 | 6.1 | 0.00 | 0.00 | 0.00 | 72 | 1009.4 |
| 20260506183505 | 84 | 107 | 1.7 | 5.2 | 0.00 | 0.00 | 0.00 | 74 | 1009.6 |
| 20260506183005 | 83 | 95 | 1.7 | 5.2 | 0.00 | 0.00 | 0.00 | 77 | 1009.6 |
| 20260506182504 | 83 | 79 | 1.7 | 5.2 | 0.00 | 0.00 | 0.00 | 76 | 1009.7 |
| 20260506182025 | 82 | 64 | 2.6 | 6.1 | 0.00 | 0.00 | 0.00 | 77 | 1009.9 |
| 20260506181525 | 82 | 57 | 1.7 | 6.1 | 0.00 | 0.00 | 0.00 | 77 | 1009.8 |
| 20260506181004 | 82 | 67 | 1.7 | 3.5 | 0.00 | 0.00 | 0.00 | 80 | 1009.9 |
| 20260506180504 | 82 | 73 | 1.7 | 3.5 | 0.00 | 0.00 | 0.00 | 79 | 1010.0 |
| 20260506180005 | 82 | 60 | 1.7 | 3.5 | 0.00 | 0.00 | 0.00 | 81 | 1010.0 |
| 20260506175526 | 81 | 48 | 1.7 | 4.3 | 0.00 | 0.00 | 0.00 | 81 | 1010.1 |
| 20260506175004 | 81 | 59 | 2.6 | 6.1 | 0.00 | 0.00 | 0.00 | 81 | 1010.1 |
| 20260506174504 | 81 | 56 | 2.6 | 6.1 | 0.00 | 0.00 | 0.00 | 81 | 1010.2 |
| 20260506174006 | 81 | 72 | 2.6 | 7.0 | 0.00 | 0.00 | 0.00 | 82 | 1010.2 |
| 20260506173525 | 81 | 78 | 3.5 | 7.0 | 0.00 | 0.00 | 0.00 | 82 | 1010.3 |
| 20260506173005 | 81 | 70 | 3.5 | 7.0 | 0.00 | 0.00 | 0.00 | 82 | 1010.4 |
| 20260506172504 | 81 | 66 | 3.5 | 7.8 | 0.00 | 0.00 | 0.00 | 83 | 1010.4 |
| 20260506172025 | 81 | 60 | 4.3 | 8.7 | 0.00 | 0.00 | 0.00 | 82 | 1010.4 |
| 20260506171506 | 81 | 64 | 4.3 | 8.7 | 0.00 | 0.00 | 0.00 | 84 | 1010.4 |
| 20260506171005 | 80 | 59 | 3.5 | 7.8 | 0.00 | 0.00 | 0.00 | 86 | 1010.5 |
| 20260506170504 | 79 | 46 | 2.6 | 7.8 | 0.00 | 0.00 | 0.00 | 86 | 1010.4 |
| 20260506170005 | 79 | 44 | 2.6 | 7.0 | 0.00 | 0.00 | 0.00 | 86 | 1010.5 |
| 20260506165525 | 79 | 50 | 2.6 | 7.0 | 0.00 | 0.00 | 0.00 | 87 | 1010.5 |
| 20260506165025 | 78 | 49 | 2.6 | 7.0 | 0.00 | 0.00 | 0.00 | 87 | 1010.6 |
| 20260506164504 | 78 | 33 | 3.5 | 7.0 | 0.00 | 0.00 | 0.00 | 87 | 1010.7 |
| 20260506164004 | 79 | 36 | 2.6 | 6.1 | 0.00 | 0.00 | 0.00 | 87 | 1010.6 |
| 20260506163504 | 78 | 43 | 3.5 | 7.8 | 0.00 | 0.00 | 0.00 | 87 | 1010.7 |
| 20260506163005 | 78 | 39 | 2.6 | 7.8 | 0.00 | 0.00 | 0.00 | 88 | 1010.7 |
| 20260506162504 | 78 | 52 | 3.5 | 7.0 | 0.00 | 0.00 | 0.00 | 88 | 1010.7 |
| 20260506162025 | 78 | 60 | 2.6 | 7.0 | 0.00 | 0.00 | 0.00 | 88 | 1010.6 |
| 20260506161504 | 78 | 53 | 1.7 | 4.3 | 0.00 | 0.00 | 0.00 | 89 | 1010.7 |
| 20260506161004 | 78 | 57 | 1.7 | 3.5 | 0.00 | 0.00 | 0.00 | 89 | 1010.7 |
| 20260506160504 | 78 | 71 | 2.6 | 6.1 | 0.00 | 0.00 | 0.00 | 89 | 1010.5 |
| 20260506160004 | 77 | 75 | 2.6 | 6.1 | 0.00 | 0.00 | 0.00 | 89 | 1010.4 |
| 20260506155504 | 77 | 66 | 2.6 | 5.2 | 0.00 | 0.00 | 0.00 | 89 | 1010.4 |
| 20260506155025 | 77 | 69 | 2.6 | 5.2 | 0.00 | 0.00 | 0.00 | 89 | 1010.3 |
| 20260506154504 | 77 | 77 | 2.6 | 5.2 | 0.00 | 0.00 | 0.00 | 90 | 1010.0 |
| 20260506154026 | 77 | 77 | 2.6 | 4.3 | 0.00 | 0.00 | 0.00 | 90 | 1009.9 |
| 20260506153504 | 77 | 77 | 2.6 | 4.3 | 0.00 | 0.00 | 0.00 | 90 | 1009.9 |
| 20260506153004 | 77 | 76 | 1.7 | 3.5 | 0.00 | 0.00 | 0.00 | 90 | 1009.8 |
| 20260506152504 | 77 | 73 | 1.7 | 5.2 | 0.00 | 0.00 | 0.00 | 90 | 1009.8 |
| 20260506152025 | 77 | 69 | 2.6 | 5.2 | 0.00 | 0.00 | 0.00 | 90 | 1009.8 |
| 20260506151504 | 77 | 66 | 2.6 | 4.3 | 0.00 | 0.00 | 0.00 | 91 | 1009.8 |
| 20260506151005 | 77 | 71 | 1.7 | 3.5 | 0.00 | 0.00 | 0.00 | 91 | 1009.7 |
| 20260506150504 | 76 | 74 | 1.7 | 3.5 | 0.00 | 0.00 | 0.00 | 91 | 1009.6 |
| 20260506150005 | 76 | 70 | 1.7 | 3.5 | 0.00 | 0.00 | 0.00 | 91 | 1009.6 |
| 20260506145504 | 76 | 73 | 1.7 | 3.5 | 0.00 | 0.00 | 0.00 | 92 | 1009.6 |
| 20260506145026 | 76 | 82 | 1.7 | 3.5 | 0.00 | 0.00 | 0.00 | 92 | 1009.7 |
| 20260506144504 | 76 | 79 | 0.9 | 3.5 | 0.00 | 0.00 | 0.00 | 93 | 1009.6 |
| 20260506144005 | 76 | 68 | 0.9 | 1.7 | 0.00 | 0.00 | 0.00 | 93 | 1009.5 |
| 20260506143504 | 75 | 68 | 0.0 | 1.7 | 0.00 | 0.00 | 0.00 | 93 | 1009.4 |
| 20260506143004 | 75 | 72 | 0.9 | 3.5 | 0.00 | 0.00 | 0.00 | 93 | 1009.3 |
| 20260506142505 | 75 | 77 | 1.7 | 3.5 | 0.00 | 0.00 | 0.00 | 93 | 1009.2 |
| 20260506142004 | 75 | 61 | 0.9 | 2.6 | 0.00 | 0.00 | 0.00 | 93 | 1009.3 |
| 20260506141504 | 75 | 34 | 0.9 | 2.6 | 0.00 | 0.00 | 0.00 | 93 | 1009.2 |
| 20260506141005 | 75 | 56 | 0.9 | 2.6 | 0.00 | 0.00 | 0.00 | 93 | 1009.0 |
| 20260506140504 | 75 | 56 | 0.9 | 3.5 | 0.00 | 0.00 | 0.00 | 93 | 1009.1 |
| 20260506140005 | 75 | 52 | 0.9 | 3.5 | 0.00 | 0.00 | 0.00 | 93 | 1008.8 |
| 20260506135525 | 75 | 68 | 0.9 | 1.7 | 0.00 | 0.00 | 0.00 | 93 | 1008.8 |
| 20260506135004 | 75 | 69 | 0.9 | 2.6 | 0.00 | 0.00 | 0.00 | 93 | 1008.5 |
| 20260506134504 | 75 | 73 | 1.7 | 3.5 | 0.00 | 0.00 | 0.00 | 93 | 1008.5 |
| 20260506134004 | 75 | 68 | 1.7 | 3.5 | 0.00 | 0.00 | 0.00 | 93 | 1008.4 |
| 20260506133504 | 75 | 68 | 0.9 | 2.6 | 0.00 | 0.00 | 0.00 | 93 | 1008.3 |
| 20260506133004 | 75 | 77 | 0.9 | 2.6 | 0.00 | 0.00 | 0.00 | 94 | 1008.5 |
| 20260506132525 | 74 | 76 | 1.7 | 2.6 | 0.00 | 0.00 | 0.00 | 94 | 1008.5 |
| 20260506132005 | 74 | 76 | 1.7 | 2.6 | 0.00 | 0.00 | 0.00 | 94 | 1008.5 |
| 20260506131504 | 74 | 84 | 1.7 | 3.5 | 0.00 | 0.00 | 0.00 | 94 | 1008.3 |
| 20260506131025 | 74 | 92 | 1.7 | 5.2 | 0.00 | 0.00 | 0.00 | 94 | 1008.3 |
| 20260506130525 | 74 | 89 | 1.7 | 5.2 | 0.00 | 0.00 | 0.00 | 94 | 1008.3 |
| 20260506130005 | 74 | 107 | 0.9 | 3.5 | 0.00 | 0.00 | 0.00 | 94 | 1008.5 |
| 20260506125504 | 74 | 161 | 0.0 | 3.5 | 0.00 | 0.00 | 0.00 | 94 | 1008.5 |
| 20260506125004 | 74 | 161 | 0.0 | 0.9 | 0.00 | 0.00 | 0.00 | 94 | 1008.5 |
| 20260506124526 | 74 | 161 | 0.0 | 0.9 | 0.00 | 0.00 | 0.00 | 94 | 1008.5 |
| 20260506124006 | 74 | 155 | 0.9 | 3.5 | 0.00 | 0.00 | 0.00 | 94 | 1008.5 |
| 20260506123504 | 74 | 151 | 1.7 | 3.5 | 0.00 | 0.00 | 0.00 | 94 | 1008.5 |
| 20260506123004 | 74 | 150 | 0.9 | 3.5 | 0.00 | 0.00 | 0.00 | 94 | 1008.3 |
| 20260506122525 | 74 | 161 | 0.0 | 1.7 | 0.00 | 0.00 | 0.00 | 94 | 1008.1 |
| 20260506122005 | 74 | 161 | 0.0 | 0.9 | 0.00 | 0.00 | 0.00 | 94 | 1008.1 |
| 20260506121525 | 73 | 161 | 0.0 | 1.7 | 0.00 | 0.00 | 0.00 | 94 | 1008.1 |
| 20260506121004 | 73 | 161 | 0.0 | 1.7 | 0.00 | 0.00 | 0.00 | 94 | 1008.2 |
| 20260506120504 | 73 | 161 | 0.0 | 1.7 | 0.00 | 0.00 | 0.00 | 94 | 1008.2 |
| 20260506120005 | 73 | 161 | 0.0 | 1.7 | 0.00 | 0.00 | 0.00 | 94 | 1008.1 |
| 20260506115504 | 73 | 161 | 0.0 | 1.7 | 0.00 | 0.00 | 0.00 | 93 | 1008.1 |
| 20260506115025 | 73 | 161 | 0.0 | 1.7 | 0.00 | 0.00 | 0.00 | 93 | 1008.2 |
| 20260506114504 | 73 | 0 | 0.0 | 0.0 | 0.00 | 0.00 | 0.00 | 93 | 1008.3 |
| 20260506114005 | 73 | 0 | 0.0 | 0.0 | 0.00 | 0.00 | 0.00 | 93 | 1008.2 |
| 20260506113504 | 73 | 161 | 0.0 | 0.9 | 0.00 | 0.00 | 0.00 | 93 | 1008.1 |
| 20260506113025 | 73 | 161 | 0.0 | 0.9 | 0.00 | 0.00 | 0.00 | 93 | 1008.1 |
| 20260506112504 | 73 | 161 | 0.0 | 0.9 | 0.00 | 0.00 | 0.00 | 93 | 1008.2 |
| 20260506112004 | 74 | 161 | 0.0 | 0.9 | 0.00 | 0.00 | 0.00 | 93 | 1008.1 |
| 20260506111504 | 74 | 161 | 0.0 | 1.7 | 0.00 | 0.00 | 0.00 | 93 | 1008.0 |
| 20260506111004 | 74 | 161 | 0.9 | 1.7 | 0.00 | 0.00 | 0.00 | 93 | 1008.0 |
| 20260506110504 | 74 | 160 | 0.9 | 3.5 | 0.00 | 0.00 | 0.00 | 93 | 1008.0 |
| 20260506110004 | 74 | 132 | 0.9 | 3.5 | 0.00 | 0.00 | 0.00 | 93 | 1008.0 |
| 20260506105504 | 74 | 81 | 0.0 | 1.7 | 0.00 | 0.00 | 0.00 | 92 | 1008.0 |
| 20260506105004 | 74 | 144 | 0.0 | 1.7 | 0.00 | 0.00 | 0.00 | 92 | 1008.0 |
| 20260506104525 | 74 | 176 | 0.9 | 1.7 | 0.00 | 0.00 | 0.00 | 92 | 1007.9 |
| 20260506104004 | 74 | 176 | 0.9 | 1.7 | 0.00 | 0.00 | 0.00 | 92 | 1007.8 |
| 20260506103504 | 74 | 184 | 0.9 | 3.5 | 0.00 | 0.00 | 0.00 | 92 | 1007.9 |
| 20260506103025 | 74 | 188 | 0.9 | 3.5 | 0.00 | 0.00 | 0.00 | 92 | 1007.8 |
| 20260506102504 | 74 | 194 | 0.9 | 2.6 | 0.00 | 0.00 | 0.00 | 92 | 1007.7 |
| 20260506102004 | 74 | 187 | 1.7 | 5.2 | 0.00 | 0.00 | 0.00 | 91 | 1007.8 |
| 20260506101504 | 74 | 177 | 2.6 | 5.2 | 0.00 | 0.00 | 0.00 | 91 | 1007.8 |
| 20260506101025 | 75 | 173 | 2.6 | 5.2 | 0.00 | 0.00 | 0.00 | 91 | 1007.8 |
| 20260506100504 | 75 | 177 | 3.5 | 7.8 | 0.00 | 0.00 | 0.00 | 91 | 1007.7 |
| 20260506100004 | 75 | 181 | 3.5 | 7.8 | 0.00 | 0.00 | 0.00 | 91 | 1007.6 |
| 20260506095504 | 75 | 183 | 3.5 | 7.0 | 0.00 | 0.00 | 0.00 | 91 | 1007.7 |
| 20260506095004 | 75 | 177 | 2.6 | 6.1 | 0.00 | 0.00 | 0.00 | 91 | 1007.7 |
| 20260506094503 | 75 | 171 | 2.6 | 7.0 | 0.00 | 0.00 | 0.00 | 91 | 1007.6 |
| 20260506094004 | 75 | 171 | 3.5 | 7.0 | 0.00 | 0.00 | 0.00 | 91 | 1007.6 |
| 20260506093504 | 75 | 174 | 3.5 | 6.1 | 0.00 | 0.00 | 0.00 | 91 | 1007.6 |
| 20260506093004 | 75 | 173 | 3.5 | 6.1 | 0.00 | 0.00 | 0.00 | 91 | 1007.6 |
| 20260506092504 | 75 | 169 | 2.6 | 6.1 | 0.00 | 0.00 | 0.00 | 90 | 1007.6 |
| 20260506092004 | 75 | 169 | 3.5 | 7.0 | 0.00 | 0.00 | 0.00 | 90 | 1007.7 |
| 20260506091525 | 75 | 167 | 3.5 | 7.0 | 0.00 | 0.00 | 0.00 | 90 | 1007.7 |
| 20260506091025 | 75 | 172 | 3.5 | 6.1 | 0.00 | 0.00 | 0.00 | 90 | 1007.8 |
| 20260506090504 | 75 | 177 | 2.6 | 6.1 | 0.00 | 0.00 | 0.00 | 90 | 1007.8 |
| 20260506090004 | 75 | 170 | 2.6 | 6.1 | 0.00 | 0.00 | 0.00 | 90 | 1007.7 |
| 20260506085504 | 75 | 169 | 2.6 | 6.1 | 0.00 | 0.00 | 0.00 | 90 | 1007.8 |
| 20260506085004 | 75 | 173 | 2.6 | 5.2 | 0.00 | 0.00 | 0.00 | 90 | 1007.7 |
| 20260506084525 | 75 | 174 | 2.6 | 5.2 | 0.00 | 0.00 | 0.00 | 89 | 1007.8 |
| 20260506084004 | 76 | 169 | 2.6 | 5.2 | 0.00 | 0.00 | 0.00 | 89 | 1007.8 |
| 20260506083525 | 76 | 165 | 2.6 | 7.8 | 0.00 | 0.00 | 0.00 | 89 | 1007.8 |
| 20260506083025 | 76 | 165 | 2.6 | 7.8 | 0.00 | 0.00 | 0.00 | 89 | 1007.6 |
| 20260506082525 | 76 | 167 | 2.6 | 5.2 | 0.00 | 0.00 | 0.00 | 89 | 1007.7 |
| 20260506082004 | 76 | 171 | 2.6 | 5.2 | 0.00 | 0.00 | 0.00 | 89 | 1007.7 |
| 20260506081505 | 76 | 177 | 3.5 | 6.1 | 0.00 | 0.00 | 0.00 | 89 | 1007.7 |
| 20260506081004 | 76 | 177 | 3.5 | 7.8 | 0.00 | 0.00 | 0.00 | 89 | 1007.6 |
| 20260506080504 | 76 | 178 | 3.5 | 7.8 | 0.00 | 0.00 | 0.00 | 89 | 1007.5 |
| 20260506073504 | 76 | 169 | 3.5 | 7.8 | 0.00 | 0.00 | 0.00 | 87 | 1008.0 |
| 20260506073004 | 76 | 166 | 2.6 | 6.1 | 0.00 | 0.00 | 0.00 | 88 | 1008.0 |
| 20260506072504 | 76 | 167 | 3.5 | 7.0 | 0.00 | 0.00 | 0.00 | 88 | 1007.9 |
| 20260506072004 | 76 | 163 | 3.5 | 7.0 | 0.00 | 0.00 | 0.00 | 87 | 1008.1 |
| 20260506071504 | 76 | 164 | 4.3 | 7.0 | 0.00 | 0.00 | 0.00 | 88 | 1008.1 |
| 20260506071004 | 76 | 166 | 3.5 | 7.0 | 0.00 | 0.00 | 0.00 | 88 | 1008.1 |
| 20260506070504 | 76 | 164 | 3.5 | 7.0 | 0.00 | 0.00 | 0.00 | 88 | 1008.1 |
| 20260506062504 | 76 | 167 | 5.2 | 12.2 | 0.00 | 0.00 | 0.00 | 88 | 1008.1 |
| 20260506062004 | 76 | 164 | 5.2 | 12.2 | 0.00 | 0.00 | 0.00 | 88 | 1008.1 |
| 20260506061504 | 76 | 161 | 4.3 | 9.6 | 0.00 | 0.00 | 0.00 | 88 | 1008.2 |
| 20260506061004 | 76 | 168 | 4.3 | 7.8 | 0.00 | 0.00 | 0.00 | 89 | 1008.2 |
| 20260506060504 | 76 | 164 | 4.3 | 7.8 | 0.00 | 0.00 | 0.00 | 89 | 1008.2 |
| 20260506051024 | 77 | 154 | 4.3 | 8.7 | 0.00 | 0.00 | 0.00 | 87 | 1008.1 |
| 20260506050503 | 77 | 157 | 4.3 | 12.2 | 0.00 | 0.00 | 0.00 | 87 | 1008.0 |
| 20260506045004 | 77 | 156 | 3.5 | 7.8 | 0.00 | 0.00 | 0.00 | 87 | 1008.2 |
| 20260506044504 | 77 | 155 | 3.5 | 7.8 | 0.00 | 0.00 | 0.00 | 87 | 1008.3 |
| 20260506044004 | 76 | 150 | 3.5 | 6.1 | 0.00 | 0.00 | 0.00 | 87 | 1008.2 |
| 20260506043503 | 76 | 146 | 3.5 | 7.8 | 0.00 | 0.00 | 0.00 | 87 | 1008.3 |
| 20260506043004 | 77 | 151 | 4.3 | 7.8 | 0.00 | 0.00 | 0.00 | 87 | 1008.3 |
| 20260506042504 | 77 | 149 | 4.3 | 7.0 | 0.00 | 0.00 | 0.00 | 87 | 1008.1 |
| 20260506042003 | 77 | 143 | 4.3 | 7.8 | 0.00 | 0.00 | 0.00 | 87 | 1008.0 |
| 20260506041503 | 77 | 144 | 4.3 | 8.7 | 0.00 | 0.00 | 0.00 | 87 | 1008.1 |
| 20260506041004 | 77 | 146 | 3.5 | 8.7 | 0.00 | 0.00 | 0.00 | 87 | 1008.1 |
| 20260506040503 | 77 | 152 | 3.5 | 9.6 | 0.00 | 0.00 | 0.00 | 87 | 1008.1 |
| 20260506040004 | 77 | 147 | 4.3 | 9.6 | 0.00 | 0.00 | 0.00 | 86 | 1008.0 |
| 20260506035504 | 77 | 145 | 4.3 | 8.7 | 0.00 | 0.00 | 0.00 | 86 | 1007.9 |
| 20260506035004 | 77 | 147 | 5.2 | 8.7 | 0.00 | 0.00 | 0.00 | 86 | 1007.7 |
| 20260506034504 | 77 | 146 | 5.2 | 9.6 | 0.00 | 0.00 | 0.00 | 86 | 1007.8 |
| 20260506034003 | 77 | 146 | 5.2 | 9.6 | 0.00 | 0.00 | 0.00 | 86 | 1007.6 |
| 20260506033503 | 77 | 149 | 5.2 | 12.2 | 0.00 | 0.00 | 0.00 | 86 | 1007.5 |
| 20260506033025 | 77 | 150 | 5.2 | 12.2 | 0.00 | 0.00 | 0.00 | 86 | 1007.5 |
| 20260506032503 | 78 | 147 | 5.2 | 8.7 | 0.00 | 0.00 | 0.00 | 86 | 1007.4 |
| 20260506032004 | 78 | 148 | 5.2 | 10.4 | 0.00 | 0.00 | 0.00 | 85 | 1007.5 |
| 20260506031504 | 78 | 146 | 5.2 | 10.4 | 0.00 | 0.00 | 0.00 | 85 | 1007.4 |
| 20260506031003 | 78 | 145 | 4.3 | 10.4 | 0.00 | 0.00 | 0.00 | 85 | 1007.3 |
| 20260506030503 | 78 | 147 | 4.3 | 7.8 | 0.00 | 0.00 | 0.00 | 85 | 1007.3 |
| 20260506030005 | 78 | 149 | 4.3 | 7.8 | 0.00 | 0.00 | 0.00 | 84 | 1007.2 |
| 20260506025525 | 78 | 148 | 4.3 | 7.8 | 0.00 | 0.00 | 0.00 | 84 | 1007.2 |
| 20260506025004 | 78 | 146 | 4.3 | 7.8 | 0.00 | 0.00 | 0.00 | 84 | 1007.2 |
| 20260506024504 | 79 | 144 | 4.3 | 7.0 | 0.00 | 0.00 | 0.00 | 84 | 1007.1 |
| 20260506024003 | 79 | 146 | 3.5 | 6.1 | 0.00 | 0.00 | 0.00 | 83 | 1007.0 |
| 20260506023525 | 79 | 152 | 3.5 | 7.8 | 0.00 | 0.00 | 0.00 | 83 | 1007.1 |
| 20260506023004 | 79 | 151 | 4.3 | 9.6 | 0.00 | 0.00 | 0.00 | 83 | 1007.1 |
| 20260506022503 | 79 | 148 | 4.3 | 9.6 | 0.00 | 0.00 | 0.00 | 83 | 1006.9 |
| 20260506022004 | 79 | 144 | 3.5 | 9.6 | 0.00 | 0.00 | 0.00 | 83 | 1006.6 |
| 20260506021504 | 79 | 136 | 2.6 | 5.2 | 0.00 | 0.00 | 0.00 | 83 | 1006.6 |
| 20260506021004 | 79 | 137 | 2.6 | 7.0 | 0.00 | 0.00 | 0.00 | 83 | 1006.5 |
| 20260506020503 | 80 | 138 | 3.5 | 8.7 | 0.00 | 0.00 | 0.00 | 82 | 1006.4 |
| 20260506020004 | 80 | 137 | 3.5 | 8.7 | 0.00 | 0.00 | 0.00 | 82 | 1006.4 |
| 20260506015524 | 80 | 134 | 3.5 | 7.0 | 0.00 | 0.00 | 0.00 | 81 | 1006.5 |
| 20260506015003 | 80 | 134 | 3.5 | 7.8 | 0.00 | 0.00 | 0.00 | 81 | 1006.4 |
| 20260506014504 | 80 | 133 | 3.5 | 7.8 | 0.00 | 0.00 | 0.00 | 80 | 1006.4 |
| 20260506014003 | 81 | 139 | 3.5 | 7.8 | 0.00 | 0.00 | 0.00 | 80 | 1006.3 |
| 20260506013504 | 81 | 141 | 3.5 | 7.8 | 0.00 | 0.00 | 0.00 | 80 | 1006.3 |
| 20260506013003 | 81 | 129 | 2.6 | 5.2 | 0.00 | 0.00 | 0.00 | 80 | 1006.2 |
| 20260506012505 | 81 | 135 | 2.6 | 7.0 | 0.00 | 0.00 | 0.00 | 79 | 1006.1 |
| 20260506012026 | 81 | 140 | 3.5 | 8.7 | 0.00 | 0.00 | 0.00 | 79 | 1006.1 |
| 20260506011505 | 82 | 139 | 3.5 | 8.7 | 0.00 | 0.00 | 0.00 | 79 | 1006.0 |
| 20260506011026 | 82 | 132 | 2.6 | 6.1 | 0.00 | 0.00 | 0.00 | 79 | 1006.0 |
| 20260506010505 | 82 | 130 | 2.6 | 8.7 | 0.00 | 0.00 | 0.00 | 78 | 1005.9 |
| 20260506010005 | 82 | 128 | 2.6 | 8.7 | 0.00 | 0.00 | 0.00 | 78 | 1005.8 |
| 20260506005526 | 82 | 127 | 2.6 | 6.1 | 0.00 | 0.00 | 0.00 | 77 | 1005.8 |
| 20260506005005 | 83 | 129 | 2.6 | 6.1 | 0.00 | 0.00 | 0.00 | 77 | 1005.7 |
| 20260506004505 | 83 | 121 | 2.6 | 6.1 | 0.00 | 0.00 | 0.00 | 76 | 1005.7 |
| 20260506004005 | 83 | 114 | 1.7 | 6.1 | 0.00 | 0.00 | 0.00 | 75 | 1005.6 |
| 20260506003527 | 84 | 103 | 1.7 | 4.3 | 0.00 | 0.00 | 0.00 | 75 | 1005.6 |
| 20260506003005 | 84 | 118 | 1.7 | 4.3 | 0.00 | 0.00 | 0.00 | 74 | 1005.6 |
| 20260506002504 | 84 | 136 | 1.7 | 5.2 | 0.00 | 0.00 | 0.00 | 74 | 1005.5 |
| 20260506002004 | 84 | 144 | 2.6 | 6.1 | 0.00 | 0.00 | 0.00 | 73 | 1005.5 |
| 20260506001504 | 84 | 144 | 2.6 | 6.1 | 0.00 | 0.00 | 0.00 | 73 | 1005.4 |
| 20260506001005 | 84 | 140 | 2.6 | 7.0 | 0.00 | 0.00 | 0.00 | 72 | 1005.5 |
| 20260506000505 | 84 | 136 | 2.6 | 7.0 | 0.00 | 0.00 | 0.00 | 72 | 1005.4 |
| 20260506000004 | 85 | 134 | 2.6 | 6.1 | 0.00 | 0.00 | 0.00 | 71 | 1005.2 |
| 20260505235505 | 85 | 139 | 3.5 | 7.0 | 0.00 | 0.00 | 0.00 | 72 | 1005.2 |
| 20260505235025 | 85 | 141 | 3.5 | 7.0 | 0.00 | 0.00 | 0.00 | 72 | 1005.1 |
| 20260505234505 | 85 | 141 | 3.5 | 6.1 | 0.00 | 0.00 | 0.00 | 71 | 1005.0 |
| 20260505234026 | 85 | 142 | 3.5 | 6.1 | 0.00 | 0.00 | 0.00 | 71 | 1005.1 |
| 20260505233526 | 85 | 147 | 3.5 | 6.1 | 0.00 | 0.00 | 0.00 | 71 | 1005.1 |
| 20260505233005 | 85 | 153 | 3.5 | 6.1 | 0.00 | 0.00 | 0.00 | 71 | 1005.2 |
| 20260505232505 | 85 | 151 | 4.3 | 7.8 | 0.00 | 0.00 | 0.00 | 71 | 1005.1 |
| 20260505232004 | 86 | 142 | 4.3 | 7.8 | 0.00 | 0.00 | 0.00 | 70 | 1005.2 |
| 20260505231505 | 86 | 139 | 3.5 | 7.8 | 0.00 | 0.00 | 0.00 | 70 | 1005.2 |
| 20260505231005 | 86 | 159 | 4.3 | 7.8 | 0.00 | 0.00 | 0.00 | 69 | 1005.2 |
| 20260505230505 | 86 | 160 | 5.2 | 7.8 | 0.00 | 0.00 | 0.00 | 69 | 1005.2 |
| 20260505230026 | 86 | 150 | 4.3 | 7.8 | 0.00 | 0.00 | 0.00 | 69 | 1005.1 |
| 20260505225505 | 86 | 154 | 4.3 | 7.8 | 0.00 | 0.00 | 0.00 | 69 | 1005.1 |
| 20260505225005 | 86 | 155 | 4.3 | 9.6 | 0.00 | 0.00 | 0.00 | 72 | 1005.1 |
| 20260505224505 | 85 | 141 | 4.3 | 9.6 | 0.00 | 0.00 | 0.00 | 71 | 1005.2 |
| 20260505224026 | 85 | 136 | 4.3 | 8.7 | 0.00 | 0.00 | 0.00 | 71 | 1005.2 |
| 20260505223505 | 85 | 138 | 4.3 | 7.8 | 0.00 | 0.00 | 0.00 | 71 | 1005.3 |
| 20260505223005 | 86 | 138 | 3.5 | 8.7 | 0.00 | 0.00 | 0.00 | 71 | 1005.3 |
| 20260505222505 | 86 | 138 | 3.5 | 8.7 | 0.00 | 0.00 | 0.00 | 70 | 1005.4 |
| 20260505222005 | 86 | 145 | 3.5 | 7.8 | 0.00 | 0.00 | 0.00 | 70 | 1005.5 |
| 20260505221504 | 86 | 145 | 3.5 | 7.8 | 0.00 | 0.00 | 0.00 | 72 | 1005.4 |
| 20260505221005 | 85 | 143 | 3.5 | 7.8 | 0.00 | 0.00 | 0.00 | 71 | 1005.4 |
| 20260505220505 | 85 | 143 | 3.5 | 7.0 | 0.00 | 0.00 | 0.00 | 72 | 1005.5 |
| 20260505220005 | 86 | 159 | 4.3 | 7.8 | 0.00 | 0.00 | 0.00 | 71 | 1005.4 |
| 20260505215505 | 86 | 164 | 4.3 | 7.8 | 0.00 | 0.00 | 0.00 | 70 | 1005.4 |
| 20260505215004 | 86 | 166 | 5.2 | 10.4 | 0.00 | 0.00 | 0.00 | 68 | 1005.6 |
| 20260505214504 | 86 | 180 | 4.3 | 10.4 | 0.00 | 0.00 | 0.00 | 67 | 1005.6 |
| 20260505214005 | 86 | 192 | 4.3 | 7.8 | 0.00 | 0.00 | 0.00 | 69 | 1005.7 |
| 20260505213504 | 86 | 186 | 4.3 | 7.8 | 0.00 | 0.00 | 0.00 | 70 | 1005.8 |
| 20260505213005 | 86 | 176 | 3.5 | 7.0 | 0.00 | 0.00 | 0.00 | 70 | 1005.9 |
| 20260505212505 | 86 | 190 | 4.3 | 9.6 | 0.00 | 0.00 | 0.00 | 70 | 1005.9 |
| 20260505212004 | 86 | 190 | 4.3 | 9.6 | 0.00 | 0.00 | 0.00 | 70 | 1006.0 |
| 20260505211504 | 85 | 178 | 3.5 | 8.7 | 0.00 | 0.00 | 0.00 | 70 | 1006.1 |
| 20260505211004 | 85 | 162 | 3.5 | 8.7 | 0.00 | 0.00 | 0.00 | 70 | 1006.1 |
| 20260505210504 | 85 | 141 | 3.5 | 7.0 | 0.00 | 0.00 | 0.00 | 71 | 1006.1 |
| 20260505210005 | 85 | 155 | 3.5 | 7.8 | 0.00 | 0.00 | 0.00 | 72 | 1006.3 |
| 20260505205525 | 84 | 162 | 3.5 | 7.8 | 0.00 | 0.00 | 0.00 | 72 | 1006.2 |